FW0344 Weather Reports


time (UTC)temp
C
wind
direction
speed
KPH
gust
KPH
rain 1hr
cm
rain 24hr
cm
rain mn
cm
humidity
%
barometer
mb
20260510152704 15 51 16.1 29.0 0.00 0.00 0.00 63 1012.8
20260510151804 15 50 16.1 29.0 0.00 0.00 0.00 64 1012.9
20260510150925 15 48 14.5 27.4 0.00 0.00 0.00 63 1013.1
20260510150004 15 36 14.5 35.4 0.00 0.00 0.00 62 1013.0
20260510145404 15 35 12.9 24.1 0.00 0.00 0.00 62 1013.0
20260510144504 15 32 12.9 30.6 0.00 0.00 0.00 63 1013.2
20260510143604 15 42 14.5 30.6 0.00 0.00 0.00 62 1013.2
20260510142704 15 44 14.5 29.0 0.00 0.00 0.00 60 1013.2
20260510141804 15 44 16.1 35.4 0.00 0.00 0.00 60 1013.2
20260510140904 15 39 17.7 33.8 0.00 0.00 0.00 61 1013.3
20260510140004 15 32 14.5 30.6 0.00 0.00 0.00 61 1013.4
20260510135425 15 32 16.1 30.6 0.00 0.00 0.00 61 1013.5
20260510134504 16 40 12.9 27.4 0.00 0.00 0.00 60 1013.4
20260510133604 16 43 14.5 32.2 0.00 0.00 0.00 61 1013.5
20260510132704 15 47 17.7 33.8 0.00 0.00 0.00 60 1013.5
20260510131803 16 48 16.1 33.8 0.00 0.00 0.00 59 1013.7
20260510130903 16 43 14.5 25.7 0.00 0.00 0.00 60 1013.6
20260510130004 16 42 14.5 32.2 0.00 0.00 0.00 60 1013.7
20260510125404 16 44 14.5 25.7 0.00 0.00 0.00 60 1013.7
20260510124503 16 50 14.5 27.4 0.00 0.00 0.00 59 1013.8
20260510123603 16 55 12.9 27.4 0.00 0.00 0.00 59 1013.8
20260510122703 17 61 16.1 30.6 0.00 0.00 0.00 58 1013.9
20260510121803 16 58 16.1 30.6 0.00 0.00 0.00 58 1013.9
20260510120903 16 48 16.1 32.2 0.00 0.00 0.00 58 1014.2
20260510120004 16 44 17.7 30.6 0.00 0.00 0.00 58 1014.2
20260510115404 16 49 17.7 30.6 0.00 0.00 0.00 58 1014.3
20260510114504 16 48 16.1 32.2 0.00 0.00 0.00 60 1014.4
20260510113603 15 49 19.3 38.6 0.00 0.00 0.00 60 1014.4
20260510112703 15 53 19.3 33.8 0.00 0.00 0.00 60 1014.7
20260510111803 15 52 17.7 33.8 0.00 0.00 0.00 61 1014.8
20260510110924 15 55 19.3 35.4 0.00 0.00 0.00 60 1014.9
20260510110004 15 49 19.3 37.0 0.00 0.00 0.00 59 1014.8
20260510105424 16 47 19.3 37.0 0.00 0.00 0.00 58 1014.9
20260510104503 16 47 20.9 35.4 0.00 0.00 0.00 59 1014.9
20260510103624 16 49 20.9 35.4 0.00 0.00 0.00 57 1015.0
20260510102703 17 88 14.5 35.4 0.00 0.00 0.00 58 1015.1
20260510101824 16 55 17.7 33.8 0.00 0.00 0.00 60 1015.0
20260510100903 16 48 19.3 35.4 0.00 0.00 0.00 59 1015.0
20260510100003 16 40 14.5 25.7 0.00 0.00 0.00 61 1015.2
20260510095403 15 33 14.5 25.7 0.00 0.00 0.00 63 1015.2
20260510094503 15 40 16.1 30.6 0.00 0.00 0.00 65 1015.3
20260510093603 15 35 16.1 32.2 0.00 0.00 0.00 67 1015.4
20260510092703 14 43 14.5 32.2 0.00 0.00 0.00 69 1015.3
20260510091803 13 39 14.5 33.8 0.00 0.00 0.00 70 1015.4
20260510090903 13 41 14.5 25.7 0.00 0.00 0.00 71 1015.5
20260510090003 13 27 14.5 30.6 0.00 0.00 0.00 71 1015.6
20260510085403 13 28 14.5 27.4 0.00 0.00 0.00 72 1015.4
20260510084503 13 37 14.5 30.6 0.00 0.00 0.00 72 1015.7
20260510083603 12 38 14.5 30.6 0.00 0.00 0.00 73 1015.5
20260510082703 12 37 12.9 27.4 0.00 0.00 0.00 74 1015.6
20260510081803 12 44 16.1 33.8 0.00 0.00 0.00 74 1015.6
20260510080903 11 51 16.1 33.8 0.00 0.00 0.00 74 1015.5
20260510080003 12 50 14.5 27.4 0.00 0.00 0.00 74 1015.5
20260510075403 12 48 12.9 32.2 0.00 0.00 0.00 74 1015.5
20260510074524 12 47 16.1 30.6 0.00 0.00 0.00 74 1015.5
20260510073603 12 46 14.5 29.0 0.00 0.00 0.00 74 1015.6
20260510072703 12 47 17.7 30.6 0.00 0.00 0.00 75 1015.4
20260510071803 11 42 16.1 30.6 0.00 0.00 0.00 77 1015.4
20260510070903 11 48 14.5 30.6 0.00 0.00 0.00 78 1015.4
20260510070003 11 42 16.1 33.8 0.00 0.00 0.00 79 1015.3
20260510065403 11 39 16.1 30.6 0.00 0.00 0.00 79 1015.2
20260510064503 10 45 14.5 32.2 0.00 0.00 0.00 80 1015.2
20260510063606 10 43 14.5 32.2 0.00 0.00 0.00 80 1015.3
20260510062706 10 39 9.7 19.3 0.00 0.00 0.00 80 1015.4
20260510061806 10 37 11.3 27.4 0.00 0.00 0.00 80 1015.4
20260510060906 10 40 11.3 22.5 0.00 0.00 0.00 80 1015.2
20260510060006 10 33 9.7 22.5 0.00 0.00 0.00 80 1015.2
20260510055406 9 31 9.7 22.5 0.00 0.00 0.00 80 1015.3
20260510054506 9 47 11.3 19.3 0.00 0.00 0.00 80 1015.3
20260510053606 9 51 8.0 19.3 0.00 0.00 0.00 79 1015.4
20260510052706 9 40 8.0 17.7 0.00 0.00 0.00 79 1015.3
20260510051806 9 39 9.7 24.1 0.00 0.00 0.00 78 1015.3
20260510050906 9 37 9.7 22.5 0.00 0.00 0.00 78 1015.4
20260510050006 10 39 9.7 20.9 0.00 0.00 0.00 78 1015.3
20260510045406 10 37 9.7 22.5 0.00 0.00 0.00 77 1015.4
20260510044505 10 32 9.7 24.1 0.00 0.00 0.00 77 1015.3
20260510043605 10 36 9.7 19.3 0.00 0.00 0.00 76 1015.3
20260510042705 10 29 9.7 17.7 0.00 0.00 0.00 76 1015.2
20260510041827 10 41 8.0 16.1 0.00 0.00 0.00 75 1015.1
20260510040905 10 35 9.7 17.7 0.00 0.00 0.00 74 1015.3
20260510040006 11 39 9.7 20.9 0.00 0.00 0.00 74 1015.4
20260510035405 11 42 9.7 22.5 0.00 0.00 0.00 73 1015.4
20260510034506 11 35 8.0 17.7 0.00 0.00 0.00 72 1015.3
20260510033605 11 32 9.7 22.5 0.00 0.00 0.00 70 1015.4
20260510032705 11 42 9.7 22.5 0.00 0.00 0.00 69 1015.4
20260510031805 11 41 11.3 25.7 0.00 0.00 0.00 68 1015.6
20260510030905 11 35 9.7 25.7 0.00 0.00 0.00 67 1015.5
20260510030005 11 31 11.3 22.5 0.00 0.00 0.00 66 1015.3
20260510025405 12 34 9.7 19.3 0.00 0.00 0.00 65 1015.5
20260510024505 12 29 8.0 19.3 0.00 0.00 0.00 65 1015.4
20260510023605 12 39 8.0 17.7 0.00 0.00 0.00 64 1015.4
20260510022726 12 41 9.7 19.3 0.00 0.00 0.00 63 1015.5
20260510021805 12 47 9.7 24.1 0.00 0.00 0.00 62 1015.4
20260510020905 12 44 11.3 20.9 0.00 0.00 0.00 62 1015.4
20260510020005 13 40 11.3 25.7 0.00 0.00 0.00 60 1015.4
20260510015426 13 42 8.0 19.3 0.00 0.00 0.00 60 1015.5
20260510014505 13 43 8.0 16.1 0.00 0.00 0.00 59 1015.4
20260510013626 13 46 9.7 19.3 0.00 0.00 0.00 59 1015.4
20260510012705 13 46 9.7 17.7 0.00 0.00 0.00 58 1015.3
20260510011805 13 48 11.3 20.9 0.00 0.00 0.00 58 1015.4
20260510010905 13 50 14.5 33.8 0.00 0.00 0.00 58 1015.5
20260510010005 13 49 9.7 17.7 0.00 0.00 0.00 57 1015.4
20260510005405 13 50 9.7 19.3 0.00 0.00 0.00 57 1015.4
20260510004505 13 46 11.3 20.9 0.00 0.00 0.00 56 1015.5
20260510003605 13 49 9.7 19.3 0.00 0.00 0.00 56 1015.5
20260510002705 13 43 9.7 17.7 0.00 0.00 0.00 55 1015.4
20260510001805 14 39 9.7 17.7 0.00 0.00 0.00 55 1015.4
20260510000905 14 41 8.0 17.7 0.00 0.00 0.00 55 1015.4
20260510000005 14 37 8.0 17.7 0.00 0.00 0.00 56 1015.5
20260509235405 14 39 8.0 16.1 0.00 0.00 0.00 56 1015.4
20260509234505 14 48 8.0 17.7 0.00 0.00 0.00 56 1015.5
20260509233605 15 47 8.0 19.3 0.00 0.00 0.00 56 1015.4
20260509232705 15 47 9.7 19.3 0.00 0.00 0.00 56 1015.3
20260509231826 15 47 8.0 16.1 0.00 0.00 0.00 57 1015.3
20260509230926 15 46 6.4 14.5 0.00 0.00 0.00 57 1015.4
20260509230005 15 56 8.0 17.7 0.00 0.00 0.00 57 1015.4
20260509225405 15 56 9.7 17.7 0.00 0.00 0.00 57 1015.3
20260509224505 15 42 8.0 17.7 0.00 0.00 0.00 59 1015.1
20260509223605 15 46 9.7 19.3 0.00 0.00 0.00 60 1015.0
20260509222705 15 44 6.4 14.5 0.00 0.00 0.00 62 1015.1
20260509221826 15 48 6.4 12.9 0.00 0.00 0.00 62 1015.0
20260509220905 15 58 8.0 17.7 0.00 0.00 0.00 63 1015.0
20260509220005 15 58 6.4 14.5 0.00 0.00 0.00 67 1015.0
20260509215405 15 58 6.4 17.7 0.00 0.00 0.00 70 1014.9
20260509214526 15 50 4.8 14.5 0.00 0.00 0.00 72 1014.9
20260509213605 15 54 4.8 14.5 0.00 0.00 0.00 73 1014.9
20260509212726 15 79 1.6 8.0 0.00 0.00 0.00 73 1014.9
20260509211805 15 82 0.0 3.2 0.00 0.00 0.00 72 1014.9
20260509210905 15 0 0.0 1.6 0.00 0.00 0.00 72 1014.8
20260509210026 15 159 0.0 3.2 0.00 0.00 0.00 72 1014.9
20260509205405 15 150 0.0 6.4 0.00 0.00 0.00 71 1014.9
20260509204505 15 19 0.0 4.8 0.00 0.00 0.00 70 1014.7
20260509203626 15 37 1.6 6.4 0.00 0.00 0.00 69 1014.5
20260509202705 16 0 0.0 1.6 0.00 0.00 0.00 68 1014.4
20260509201805 16 0 0.0 1.6 0.00 0.00 0.00 68 1014.3
20260509200925 16 55 1.6 4.8 0.00 0.00 0.00 67 1014.2
20260509200005 16 55 1.6 4.8 0.00 0.00 0.00 66 1014.2
20260509195425 16 55 0.0 3.2 0.00 0.00 0.00 66 1014.2
20260509194505 17 55 0.0 3.2 0.00 0.00 0.00 65 1014.3
20260509193605 17 55 0.0 3.2 0.00 0.00 0.00 64 1014.1
20260509192725 17 55 1.6 3.2 0.00 0.00 0.00 63 1014.0
20260509191805 17 55 0.0 3.2 0.00 0.00 0.00 62 1013.9
20260509190905 17 55 1.6 4.8 0.00 0.00 0.00 61 1014.1
20260509190005 18 57 1.6 4.8 0.00 0.00 0.00 61 1014.0
20260509185426 18 51 3.2 4.8 0.00 0.00 0.00 61 1013.9
20260509184504 18 44 3.2 4.8 0.00 0.00 0.00 60 1014.0
20260509183625 18 91 3.2 4.8 0.00 0.00 0.00 58 1014.0
20260509182725 18 98 1.6 4.8 0.00 0.00 0.00 57 1014.0
20260509181804 18 99 3.2 6.4 0.00 0.00 0.00 57 1013.9
20260509180904 19 112 4.8 9.7 0.00 0.00 0.00 56 1014.0
20260509180025 19 102 3.2 9.7 0.00 0.00 0.00 55 1014.0
20260509175404 19 110 3.2 9.7 0.00 0.00 0.00 55 1014.0
20260509174504 20 109 4.8 11.3 0.00 0.00 0.00 54 1014.0
20260509173604 20 106 6.4 16.1 0.00 0.00 0.00 52 1013.9
20260509172704 20 95 6.4 12.9 0.00 0.00 0.00 53 1013.9
20260509171804 20 94 6.4 14.5 0.00 0.00 0.00 53 1013.8
20260509170904 20 94 6.4 12.9 0.00 0.00 0.00 53 1013.9
20260509170004 20 104 4.8 9.7 0.00 0.00 0.00 51 1014.0
20260509165404 20 102 4.8 9.7 0.00 0.00 0.00 52 1013.9
20260509164504 20 87 4.8 11.3 0.00 0.00 0.00 51 1014.1
20260509163604 21 65 6.4 12.9 0.00 0.00 0.00 50 1014.0
20260509162704 20 77 6.4 12.9 0.00 0.00 0.00 51 1014.1
20260509161804 20 89 8.0 16.1 0.00 0.00 0.00 50 1014.1
20260509160904 20 109 8.0 14.5 0.00 0.00 0.00 50 1014.1
20260509160004 21 101 8.0 17.7 0.00 0.00 0.00 49 1014.0
20260509155425 21 99 9.7 17.7 0.00 0.00 0.00 49 1014.1
20260509154504 21 108 6.4 16.1 0.00 0.00 0.00 50 1014.0
20260509153604 21 94 8.0 22.5 0.00 0.00 0.00 48 1014.0